"Pseudo-MPEC" for A10eeCI

Created 2019 Jun 24 17:07:07 UT using Find_Orb

Click here for an explanation of pseudo-MPECs

 
 Astrometry: 
     A10eeCI  C2019 06 10.56200122 50 05.84 +41 52 31.3    ~6B1b 18.18oVNEOCPT05
     A10eeCI  C2019 06 10.56474722 50 05.84 +41 52 31.1    ~6B1b 18.94oVNEOCPT05
     A10eeCI  C2019 06 10.57071322 50 05.86 +41 52 33.7    ~6B1b 18.83oVNEOCPT05
     A10eeCI  C2019 06 10.58242922 50 05.87 +41 52 38.4    ~6B1b 18.49oVNEOCPT05
     A10eeCI  C2019 06 10.61426422 50 06.13 +41 52 50.8    ~6B1b 18.96oVNEOCPT05
     A10eeCI  C2019 06 11.39703 22 50 10.06 +41 57 53.8    ~6BB7 18.8 GVNEOCPI52
     A10eeCI  C2019 06 11.40811 22 50 10.10 +41 57 58.1    ~6BB7 19.4 GVNEOCPI52
     A10eeCI  C2019 06 11.44037 22 50 10.26 +41 58 11.0    ~6BB7 18.5 GVNEOCPI52
     A10eeCI KC2019 06 11AqPd+Y$b\:+o_MgeZ+#@y$B%#Dalb#G^twHZW'BmuNbZU*iiW/h[K88
     A10eeCI KC2019 06 11+G_O.+leRP`*R@;Yb..jKiE/i4xx@\)hu3P%Y/V=;vXO8@])kL(TK88
     A10eeCI KC2019 06 12oqRpoM,Ro'eEaD;tSq7IGox:6Astrometry[C[b%6WvB'EIgxH=0K88
     A10eeCI |C2019 06 12b3*o+vr,kpF[RCq:IaKy]-E-tw%C:C-V173xYIIn!l?ootod'nKVH06
     A10eeCI |C2019 06 12kPS_N`p_QPUeNWxQZFR'@!vFvEdW9i3^@fDH:-XDwrsOJ.uV5;21H06
     A10eeCI KC2019 06 12.1ZeJJScDs-l!y2E;/qh^uP3,e)QEbYEf)xOML6?kr86gGb0_7`rK88
     A10eeCI KC2019 06 12CL!;WAs4g_q?iyk%rKKkc;20#Bo;]B8cwT@RO9fpR]jA\5!UaLJgK88
     A10eeCI KC2019 06 1225E/*:l,U$:uVjhv:@Y*p@q%'w%+7@cF%W8+dGc$BsHdoc+)m!ygK88
     A10eeCI KC2019 06 12rXHo]T3NNQOS.A9riQevyPEb[N06'w._Wv.DK\uj^A)0d_aP[a[#K88
     A10eeCI KC2019 06 13;/3Qke9*?p'M:Rcj,SN'\8lBBW;8r=`Hm%awDWXqK0Z;4CDJ6jF6A17
     A10eeCI KC2019 06 132$+4pW+r=S?Bnqf%O7P`LFV`CTdYD1I05TD+2)X)6wL*Hl/x*:8VA17
     A10eeCI KC2019 06 13`np]#4=GEfX4uVta`RjP)p5RcD*G8BWRj'6m;SoasMun)o/C!TN_A17
     A10eeCI KC2019 06 14Jckgauh=yRaBUBOJ]IQXq4([X]5`B9I3[0bId%#qA)9PKiTbl+ucK38
     A10eeCI KC2019 06 14?#DQ:377M:$.%g1iF4`gT=Cwq,iV',v^+'RsiE3HS85?\[-v#%PtK38
     A10eeCI KC2019 06 14I'F/pjWR(b44-XtYg;RIP`ySe*(h1NQ(*u_]#!ql[XJaRPu?EMBuK38
     A10eeCI  C2019 06 14.45620 22 50 22.33 +42 17 36.4    ~6EBM       VNEOCPI52
     A10eeCI  C2019 06 14.45977 22 50 22.32 +42 17 37.8    ~6EBM 18.9 GVNEOCPI52
     A10eeCI  C2019 06 14.45996 22 50 22.29 +42 17 38.1    ~6EBM 18.9 GVNEOCPI52
     A10eeCI 3C2019 06 163B)SL1A]9s?CnXZLYQ;/hrw[=%$l8FOkL:g/S`OQTa1ZAcx6L@8hG40
     A10eeCI 3C2019 06 16lj$co\Va\_-.t=-ZF^h.pI)3!?9vW\B!:,Jv2X!?fU9]cM^!;FKOG40
     A10eeCI KC2019 06 16.98351622 50 28.77 +42 33 43.8    ~6HAM 18.8 GVNEOCPC95
     A10eeCI KC2019 06 168tnRJ%hl'(RQ$n=6J\VYO9vQxrw#jL@HB65'rA2vjPfnfBMp5Jrg204
     A10eeCI KC2019 06 17DdYiku-1wP13?l+`Y[*cGxOiLy%PrF,p0e_!;Gg8wRyeVX!aAH9J204
     A10eeCI KC2019 06 17.00732222 50 28.74 +42 33 53.3    ~6HAM 18.9 GVNEOCPC95
     A10eeCI KC2019 06 17leJKovq!l[A,7\SXNP0.F/tVredacted;Auqbw13CP]nF3?!%UBe204
     A10eeCI KC2019 06 17.03123022 50 28.72 +42 34 02.8    ~6HAM 18.6 GVNEOCPC95
     A10eeCI KC2019 06 17.03448 22 50 28.83 +42 34 02.8    ~6H2b 18.8 VqNEOCPI93
     A10eeCI KC2019 06 17.05051 22 50 28.80 +42 34 09.2    ~6H2b 19.6 VqNEOCPI93
     A10eeCI KC2019 06 17.06803 22 50 28.91 +42 34 16.6    ~6H2b 18.5 VqNEOCPI93
     A10eeCI 9C2019 06 17lXJaH4oHxi%?v(ao_8,.^?M9x\\dNn\RU+A%S?n2^gc@]J5vbu*:G40
     A10eeCI 9C2019 06 172:mnPWwD9OTxpY,i'(H[H+,8(H32#(x=OmG,jEysyRD2^3n;8HDVG40
     A10eeCI 3C2019 06 18*FCI%ofTb3:,3:Y2F#y*7m`,cxJevoC$fl)[38wRclick)3Fbl@yG40
     A10eeCI 3C2019 06 18v1F7=c5hOfHD/0UdkBhCTK0!hdG.=x?c56'$$Vj'S-e/q0QMSN($G40
     A10eeCI 3C2019 06 189]F#*TA(M^qdevBA@#vtea)6K4d$=F)V))Y38Tpe9g)X=T^]PXHkG40
     A10eeCI pC2019 06 20;9)#AFI$,a6?yDi?71pN(J2fTDhy_'oi*65-nl9V\3/VNgQhYl(yL01
     A10eeCI KC2019 06 20FMhy2In!._k;S7/csvsSRGK@R962+e+k-*$WyYe^$k;i/he(vr)GL01
     A10eeCI pC2019 06 20l\a(HF3,lA6Jxi]c'bCMWg\,dv$GCJ]^R+_Sskyn[IlK,/,H,YM;L01
     A10eeCI pC2019 06 20ZZYV8'yc8oJwCh!7I$]N1F[3,:9ZVMn5),p]I5u?9rA\here`wMcL01
     A10eeCI  C2019 06 21.37726 22 50 31.42 +43 01 26.4    ~6LAM 18.9 GVNEOCPI52
     A10eeCI  C2019 06 21.38712 22 50 31.44 +43 01 29.7    ~6LAM 18.9 GVNEOCPI52
     A10eeCI  C2019 06 21.39637 22 50 31.46 +43 01 33.2    ~6LAM 18.5 GVNEOCPI52
     A10eeCI KC2019 06 21!d8fdsp3m*iAxYJ_O-.(MWTIm:Ft$!8phihM5WFV0Y[obh#'KQ8%595
     A10eeCI KC2019 06 21T,tTZRUsHCukeHGUZG1jl9i5J:Gbs!HGU)yeV!bQF(Tn]hon2v;KC10
     A10eeCI KC2019 06 21?*gCDi_qj.?kr?Gt'Rt/`BlN8;`40e-:SP^v5U@wN@hG9iuABo*\C10
     A10eeCI KC2019 06 218Q1PFKV7KpDU.@D=`Bl[d9tThoP]TfO_wY+#wa:18WsX6rx\SbO(A17
     A10eeCI KC2019 06 21p=QU_g*DdOA;j5UMON_+?X)!eF+mHyq#^8b)VL2xAWg_2;i;tZXXC10
     A10eeCI KC2019 06 215D$@ktiDkF)]bf:4Rl0cYoPt8kO3%ak:_I5QCXOi$2LgR@U+2?HFA17
     A10eeCI KC2019 06 21ixt'CInH1_=pbR!,0QOh=U/pv?Ub^#.M]UE,#HqceB%qCe[N:IFpA17
     A10eeCI KC2019 06 213FRq.jNqr*T'P:*R2G=.M4Q8oZSr#_vI7G1\u(T6[0+?bqgY%:GV595
     A10eeCI KC2019 06 21Rpj_hJbNFe?mwUiYcIJDYUduL+TQE!aQK,7mVSu#s;JJJm)4-2ObC43
     A10eeCI KC2019 06 21P$h[Xs3[2^gIRwVMTOB%ymL][CDmraDwO%/I`w^r5Kug+oW5forkC43
     A10eeCI  C2019 06 22.37685 22 50 30.56 +43 07 39.6    ~6MA7 18.5 GVNEOCPI52
     A10eeCI  C2019 06 22.38522 22 50 30.56 +43 07 42.7    ~6MA7 18.7 GVNEOCPI52
     A10eeCI  C2019 06 22.39498 22 50 30.51 +43 07 47.0    ~6MA7 18.6 GVNEOCPI52
     A10eeCI  C2019 06 22.40451 22 50 30.49 +43 07 51.0    ~6MA7 18.6 GVNEOCPI52
     A10eeCI KC2019 06 226h8b%s+JgX1e/`Drc*oGV+L+LO7u`Lgv:%8@SxDtVU_?o)7YhaDFC77
     A10eeCI KC2019 06 22SPr(Anhm5anV[GT%udZZ)Puc,\i*(B4T$UFkdd`uEa)%]n9qQC5LB96
     A10eeCI KC2019 06 22,ubvDr:yQpUQrGp6ak6Ht;+B.WtRlF^hc4H-ab`l2pC_=mO$^e3ZB96
     A10eeCI KC2019 06 22f/iC)Ai*Y1GHYTcvoUbeRG\Fw:^tKw`[@];MHN^ovr$9nMn0lG2(C77
     A10eeCI  C2019 06 23.40604 22 50 29.03 +43 14 02.7    ~6NAb 18.5 GVNEOCPI52
     A10eeCI  C2019 06 23.41446 22 50 28.96 +43 14 06.0    ~6NAb 18.6 GVNEOCPI52
     A10eeCI  C2019 06 23.42288 22 50 28.95 +43 14 08.5    ~6NAb 18.7 GVNEOCPI52
     A10eeCI  C2019 06 23.43485 22 50 28.96 +43 14 13.5    ~6NAb 18.3 GVNEOCPI52
     A10eeCI KC2019 06 24Gcv+%p1VWlP:0kA3t\pR:0gX03YB;+7f1bwAsCrgexplanationSL19
     A10eeCI KC2019 06 24=/@7iWbAqLA9*QLtBxY3dDuafn^8\8/E2G4icU;5PTs[Z7/6ijT3L19

Station data:
(204) Schiaparelli Observatory  (N45.867933 E8.770800)  Italy.  Observer L.
   Buzzi. 0.60-m f/4.64 Newtonian + CCD.
(595) Farra d'Isonzo  (N45.915734 E13.525780)  Italy.  Observers L.
   Bittesini, F. Fabris, E. Pettarin, F. Piani. Measurer E. Pettarin. 0.30-m
   f/4.5 reflector + CCD.
(A17) Guidestar Observatory, Weinheim  (N49.545393 E8.681520)  Germany.
(B96) Brixiis Observatory, Kruibeke  (N51.163512 E4.310310)  Belgium.
(C10) Maisoncelles  (N48.717713 E3.426220)  France.
(C43) Hoyerswerda  (N51.448370 E14.279200)  Germany.
(C77) Bernezzo Observatory  (N44.385250 E7.453500)  Italy.
(C95) SATINO Remote Observatory, Haute Provence  (N43.932042 E5.712390)
   France. 0.60-m f/3.2 Newtonian reflector + CCD.
(G40) Slooh.com Canary Islands Observatory  (N28.299720 W16.508260)  Canary
   Islands (Spain).  Observers G. Gašparović, Y. Chen. 0.43-m f/6.8 Corrected
   Dall-Kirkham + CCD.
(H06) RAS Observatory, Mayhill  (N32.903325 W105.528700)  US/New
   Mexico.  Observers E. Guido, G. Sostero, V. Gonano, L. Donato.
(I52) Steward Observatory, Mt. Lemmon Station  (N32.442547 W110.788920)
   US/Arizona.  Observers T. A. Pruyne, B. M. Africano, E. J. Christensen, G.
   A. Farneth, D. C. Fuls, A. R. Gibbs, A. D. Grauer, H. Groeller, J. A.
   Johnson, R. A. Kowalski, S. M. Larson, G. J. Leonard, R. L. Seaman, F. C.
   Shelly. 1.0-m reflector + CCD.
(I93) St Pardon de Conques  (N44.558710 W0.203000)  France.  Observer F.
   Losse. 0.40-m f/3.7 reflector + CCD.
(K38) M57 Observatory, Saltrio  (N45.873785 E8.918240)  Italy.
(K88) GINOP-KHK, Piszkéstető  (N47.917622 E19.893600)  Hungary.  Observer K.
   Sárneczky. 0.60-m Schmidt + CCD.
(L01) Višnjan Observatory, Tičan  (N45.290900 E13.749300)  Croatia.
   Observers K. Korlević, E. Pettarin. Measurer E. Pettarin. 1.0-m f/2.9
   reflector + CCD.
(L19) Osservatorio Felsina AAB, Montepastore  (N44.356284 E11.152580)  Italy.
(T05) ATLAS-HKO, Haleakala  (N20.707573 W156.257010)  US/Hawaii.  Observers
   L. Denneau, A. Heinze, H. Weiland, J. Tonry, H. Flewelling, A.
   Fitzsimmons, D. Young, B. Stalder. Measurers L. Denneau, A. Heinze, J.
   Tonry. 0.5-m f/2.0 Schmidt + CCD.

Orbital elements:  A10eeCI
   Perihelion 2022 Jan 18.129348 +/- 10.5 TT =  3:06:15 (JD 2459597.629348)
Epoch 2019 Jun 24.0 TT = JDT 2458658.5                        AutoNEOCP
M 359.91257234 +/- 0.24             (J2000 ecliptic)
n   0.00009309 +/- 0.000257         Peri.  171.08733 +/- 0.6
a 482.155479 +/- 1572               Node   290.97069 +/- 0.22
e   0.9925089 +/- 0.0151            Incl.   48.40562 +/- 0.048
P  10587                   H  9.3   G  0.15   U  7.2  
q 3.61185528 +/- 0.0617    Q 960.699103 +/- 583
From 73 observations 2019 June 10-24; mean residual 0".44
Residuals in arcseconds: 
190610 T05  .04+  .95+    190614 I52  .54-  .25+    190621 C10  .48+  .37-    
190610 T05  .11-  .32-    190616 G40  .48-  .39-    190621 C10  .45+  .45+    
190610 T05  .21-  .05-    190616 G40  .54+  .32+    190621 A17  .04-  .02+    
190610 T05  .72-  .07+    190616 C95  .50+  .23-    190621 C10  .01-  .36+    
190610 T05  .49+  .04+    190616 204  .83-  .08+    190621 A17  .15+  .38+    
190611 I52  .00   .53-    190617 204  .19-  .02+    190621 A17  .02+  .36-    
190611 I52  .11-  .56-    190617 C95  .28-  .12+    190621 595  .58+  .47+    
190611 I52  .07+  .25-    190617 204  .22-  .57-    190621 C43  .17+  1.2+    
190611 K88  .23-  .22+    190617 C95  .93-  .43+    190621 C43  .33+  .27+    
190611 K88  .24-  .12+    190617 I93  .20+  .76-    190622 I52  .30+  .03-    
190612 K88  .03-  .23+    190617 I93  .42-  .52-    190622 I52  .44+  .07-    
190612 H06  .14+  .09+    190617 I93  .50+  .15+    190622 I52  .06+  .56+    
190612 H06  .16+  .04+    190617 G40  .44+  .54-    190622 I52  .01+  .99+    
190612 K88  .75+  .09+    190617 G40  .56-  .35+    190622 C77  .34-  .11+    
190612 K88  .24-  .20+    190618 G40  .16-  .24-    190622 B96  1.8-  1.0-    
